This is the latest recevied weather packets stored in our database for station/object AB4KY. If no packets are shown the sender has not sent any weather packets the latest 10 day(s).
| Time | Temp. | Humidity | Pressure | Rain* | Wind** | Luminosity | Snow |
|---|---|---|---|---|---|---|---|
| 1778031004 | 15° C | 99% | 1004.7 hPa | 0 mm | - | 0 W/m² | - |
| 1778030700 | 15° C | 99% | 1004.5 hPa | 0 mm | - | 0 W/m² | - |
| 1778030397 | 15° C | 99% | 1004.6 hPa | 0 mm | - | 0 W/m² | - |
| 1778030095 | 15° C | 99% | 1004.2 hPa | 0 mm | - | 0 W/m² | - |
| 1778029791 | 15° C | 99% | 1004.4 hPa | 0 mm | - | 0 W/m² | - |
| 1778029490 | 15° C | 99% | 1004.3 hPa | 0 mm | - | 0 W/m² | - |
| 1778029186 | 15° C | 99% | 1004.2 hPa | 0 mm | - | 0 W/m² | - |
| 1778028884 | 15° C | 99% | 1004.3 hPa | 0 mm | - | 0 W/m² | - |
| 1778028579 | 15° C | 99% | 1004.4 hPa | 0 mm | - | 0 W/m² | - |
| 1778028277 | 15° C | 99% | 1004.3 hPa | 0 mm | - | 0 W/m² | - |
| 1778027973 | 15° C | 99% | 1004.4 hPa | 0 mm | - | 0 W/m² | - |
| 1778027670 | 15.56° C | 99% | 1004.3 hPa | 0 mm | - | 0 W/m² | - |
| 1778027366 | 15.56° C | 99% | 1004.5 hPa | 0 mm | - | 0 W/m² | - |
| 1778027062 | 15.56° C | 99% | 1004.4 hPa | 0 mm | - | 0 W/m² | - |
| 1778026757 | 15.56° C | 99% | 1004.8 hPa | 0.51 mm | - | 0 W/m² | - |
| 1778026455 | 15.56° C | 99% | 1004.4 hPa | 1.27 mm | - | 0 W/m² | - |
| 1778026152 | 15.56° C | 99% | 1004.3 hPa | 1.27 mm | - | 1 W/m² | - |
| 1778025850 | 15.56° C | 99% | 1004.3 hPa | 0.51 mm | - | 5 W/m² | - |
| 1778025546 | 15.56° C | 99% | 1004.4 hPa | 0 mm | - | 4 W/m² | - |
| 1778025244 | 15.56° C | 99% | 1004.4 hPa | 0 mm | - | 9 W/m² | - |
| 1778024941 | 15.56° C | 99% | 1004.2 hPa | 0 mm | - | 16 W/m² | - |
| 1778024638 | 15.56° C | 99% | 1004.6 hPa | 0 mm | - | 17 W/m² | - |
| 1778024335 | 15.56° C | 99% | 1004.7 hPa | 0.51 mm | - | 10 W/m² | - |
| 1778024033 | 15.56° C | 99% | 1004.7 hPa | 1.27 mm | - | 21 W/m² | - |
| 1778023730 | 15.56° C | 99% | 1004.8 hPa | 0.51 mm | - | 5 W/m² | - |
* Rain latest hour (hover to see other rain measurements)
** Current wind speed in m/s (hover to see current wind gust speed)